GW6937 Weather Reports


time (UTC)temp
C
wind
direction
speed
KPH
gust
KPH
rain 1hr
cm
rain 24hr
cm
rain mn
cm
humidity
%
barometer
mb
20260509032552 12 147 0.0 0.0 0.00 0.00 0.00 71 1043.8
20260509032049 12 147 0.0 0.0 0.00 0.00 0.00 71 1043.3
20260509031547 12 147 0.0 0.0 0.00 0.00 0.00 70 1043.8
20260509031044 13 147 0.0 0.0 0.00 0.00 0.00 68 1043.8
20260509030542 13 147 0.0 0.0 0.00 0.00 0.00 66 1043.7
20260509030039 13 147 0.0 0.0 0.00 0.00 0.00 66 1044.0
20260509025535 14 147 0.0 0.0 0.00 0.00 0.00 63 1043.9
20260509025030 15 147 0.0 0.0 0.00 0.00 0.00 59 1043.5
20260509024527 15 147 1.6 1.6 0.00 0.00 0.00 58 1043.9
20260509024023 15 148 1.6 1.6 0.00 0.00 0.00 51 1044.1
20260509023521 15 146 1.6 1.6 0.00 0.00 0.00 52 1043.6
20260509023017 15 147 1.6 1.6 0.00 0.00 0.00 52 1043.9
20260509022514 15 146 1.6 1.6 0.00 0.00 0.00 53 1044.0
20260509022012 15 146 0.0 1.6 0.00 0.00 0.00 57 1044.1
20260509021509 16 146 1.6 1.6 0.00 0.00 0.00 51 1043.9
20260509021006 16 140 3.2 3.2 0.00 0.00 0.00 46 1044.0
20260509020504 16 170 1.6 1.6 0.00 0.00 0.00 50 1044.1
20260509020000 16 171 1.6 1.6 0.00 0.00 0.00 49 1044.1
20260509015459 16 171 0.0 1.6 0.00 0.00 0.00 53 1044.1
20260509014956 16 171 1.6 1.6 0.00 0.00 0.00 46 1043.8
20260509014453 16 171 1.6 1.6 0.00 0.00 0.00 45 1044.1
20260509013948 16 181 1.6 1.6 0.00 0.00 0.00 45 1044.0
20260509013446 16 181 1.6 1.6 0.00 0.00 0.00 46 1043.8
20260509012941 15 181 1.6 1.6 0.00 0.00 0.00 46 1043.9
20260509012438 15 181 0.0 0.0 0.00 0.00 0.00 50 1044.0
20260509011935 16 181 0.0 0.0 0.00 0.00 0.00 49 1043.8
20260509011433 16 181 0.0 1.6 0.00 0.00 0.00 47 1043.5
20260509010930 16 181 0.0 1.6 0.00 0.00 0.00 44 1043.7
20260509010428 16 181 0.0 1.6 0.00 0.00 0.00 44 1043.9
20260509005925 17 181 0.0 0.0 0.00 0.00 0.00 44 1043.9
20260509005423 17 180 1.6 1.6 0.00 0.00 0.00 43 1043.7
20260509004922 17 179 1.6 1.6 0.00 0.00 0.00 44 1043.8
20260509004420 17 179 1.6 3.2 0.00 0.00 0.00 42 1043.6
20260509003917 17 170 3.2 3.2 0.00 0.00 0.00 42 1043.6
20260509003415 17 170 3.2 3.2 0.00 0.00 0.00 41 1043.8
20260509002911 18 171 1.6 3.2 0.00 0.00 0.00 41 1043.7
20260509002410 18 258 4.8 4.8 0.00 0.00 0.00 40 1043.5
20260509001906 18 219 3.2 4.8 0.00 0.00 0.00 39 1043.6
20260509001402 18 217 1.6 4.8 0.00 0.00 0.00 41 1043.9
20260509000900 19 225 4.8 4.8 0.00 0.00 0.00 38 1043.8
20260509000358 19 223 4.8 6.4 0.00 0.00 0.00 38 1044.3
20260508235853 19 244 3.2 3.2 0.00 0.00 0.00 38 1044.0
20260508235351 20 251 6.4 9.7 0.00 0.00 0.00 37 1044.2
20260508234848 20 232 1.6 4.8 0.00 0.00 0.00 39 1043.8
20260508234344 19 248 3.2 9.7 0.00 0.00 0.00 38 1044.1
20260508233843 19 230 3.2 6.4 0.00 0.00 0.00 37 1043.8
20260508233342 19 204 6.4 6.4 0.00 0.00 0.00 38 1044.0
20260508232838 19 219 4.8 6.4 0.00 0.00 0.00 37 1044.3
20260508232334 20 236 4.8 12.9 0.00 0.00 0.00 37 1044.2
20260508231833 20 228 4.8 11.3 0.00 0.00 0.00 36 1044.1
20260508231329 20 204 4.8 11.3 0.00 0.00 0.00 35 1043.9
20260508230826 20 245 9.7 12.9 0.00 0.00 0.00 34 1044.3
20260508230322 20 265 9.7 14.5 0.00 0.00 0.00 34 1044.3
20260508225820 20 238 8.0 16.1 0.00 0.00 0.00 35 1044.2
20260508225316 21 243 9.7 20.9 0.00 0.00 0.00 33 1044.2
20260508224814 21 240 12.9 16.1 0.00 0.00 0.00 34 1044.2
20260508224312 21 257 6.4 17.7 0.00 0.00 0.00 34 1043.9
20260508223809 21 223 4.8 12.9 0.00 0.00 0.00 35 1044.2
20260508223306 21 224 8.0 16.1 0.00 0.00 0.00 33 1044.3
20260508222804 21 262 4.8 6.4 0.00 0.00 0.00 34 1044.0
20260508222301 21 263 12.9 16.1 0.00 0.00 0.00 32 1044.2
20260508221757 21 272 6.4 14.5 0.00 0.00 0.00 33 1044.2
20260508221253 21 227 9.7 11.3 0.00 0.00 0.00 32 1044.3
20260508220750 21 231 6.4 11.3 0.00 0.00 0.00 33 1043.9
20260508220246 21 230 3.2 12.9 0.00 0.00 0.00 33 1044.1
20260508215742 21 320 8.0 14.5 0.00 0.00 0.00 32 1044.0
20260508215239 21 227 8.0 14.5 0.00 0.00 0.00 34 1044.5
20260508214737 21 279 9.7 11.3 0.00 0.00 0.00 34 1044.1
20260508214234 21 285 9.7 16.1 0.00 0.00 0.00 30 1044.1
20260508213730 21 249 9.7 22.5 0.00 0.00 0.00 32 1044.4
20260508213226 21 208 6.4 17.7 0.00 0.00 0.00 33 1044.1
20260508212723 22 263 11.3 16.1 0.00 0.00 0.00 30 1044.2
20260508212219 21 198 6.4 11.3 0.00 0.00 0.00 35 1043.9
20260508211715 21 161 9.7 22.5 0.00 0.00 0.00 30 1043.9
20260508211211 21 233 6.4 12.9 0.00 0.00 0.00 32 1044.3
20260508210709 22 258 14.5 17.7 0.00 0.00 0.00 32 1044.1
20260508210206 22 256 9.7 14.5 0.00 0.00 0.00 33 1044.3
20260508205702 21 277 8.0 12.9 0.00 0.00 0.00 29 1044.6
20260508205159 21 244 11.3 20.9 0.00 0.00 0.00 32 1044.6
20260508204655 21 256 9.7 16.1 0.00 0.00 0.00 32 1044.9
20260508204151 21 250 8.0 12.9 0.00 0.00 0.00 30 1044.7
20260508203648 21 258 8.0 16.1 0.00 0.00 0.00 35 1045.0
20260508203144 22 334 9.7 17.7 0.00 0.00 0.00 31 1045.0
20260508202640 21 224 9.7 12.9 0.00 0.00 0.00 35 1045.0
20260508202138 21 217 9.7 14.5 0.00 0.00 0.00 33 1044.7
20260508201634 21 270 9.7 12.9 0.00 0.00 0.00 33 1044.9
20260508201131 21 248 6.4 12.9 0.00 0.00 0.00 32 1045.5
20260508200628 21 253 9.7 14.5 0.00 0.00 0.00 34 1045.7
20260508200124 21 271 11.3 16.1 0.00 0.00 0.00 33 1045.3
20260508195620 21 317 14.5 17.7 0.00 0.00 0.00 34 1045.4
20260508195117 22 307 6.4 16.1 0.00 0.00 0.00 32 1045.6
20260508194613 22 270 8.0 12.9 0.00 0.00 0.00 29 1045.6
20260508194111 21 298 4.8 6.4 0.00 0.00 0.00 34 1045.2
20260508193608 21 257 6.4 20.9 0.00 0.00 0.00 38 1045.4
20260508193104 21 202 9.7 14.5 0.00 0.00 0.00 33 1045.4
20260508192601 21 186 4.8 9.7 0.00 0.00 0.00 37 1045.3
20260508192058 21 248 12.9 14.5 0.00 0.00 0.00 32 1045.3
20260508191554 21 255 9.7 17.7 0.00 0.00 0.00 36 1045.4
20260508191051 21 218 3.2 12.9 0.00 0.00 0.00 42 1045.5
20260508190548 21 163 6.4 14.5 0.00 0.00 0.00 39 1045.4
20260508190045 21 205 6.4 20.9 0.00 0.00 0.00 36 1045.6
20260508185542 21 187 11.3 12.9 0.00 0.00 0.00 30 1045.6
20260508185039 21 236 4.8 14.5 0.00 0.00 0.00 37 1045.8
20260508184537 21 310 11.3 16.1 0.00 0.00 0.00 31 1045.8
20260508184033 21 216 9.7 12.9 0.00 0.00 0.00 35 1045.9
20260508183530 21 220 9.7 16.1 0.00 0.00 0.00 34 1046.1
20260508183026 21 230 9.7 12.9 0.00 0.00 0.00 34 1045.7
20260508182523 21 213 11.3 16.1 0.00 0.00 0.00 33 1046.0
20260508182019 21 213 12.9 22.5 0.00 0.00 0.00 34 1046.1
20260508181514 20 224 3.2 12.9 0.00 0.00 0.00 40 1046.3
20260508181013 21 210 6.4 12.9 0.00 0.00 0.00 39 1046.6
20260508180509 20 200 8.0 17.7 0.00 0.00 0.00 34 1046.6
20260508180005 20 156 8.0 14.5 0.00 0.00 0.00 34 1046.4
20260508175502 20 202 8.0 17.7 0.00 0.00 0.00 35 1046.4
20260508174959 21 211 12.9 16.1 0.00 0.00 0.00 32 1046.7
20260508174457 20 229 4.8 14.5 0.00 0.00 0.00 37 1047.2
20260508173953 20 228 6.4 12.9 0.00 0.00 0.00 39 1047.7
20260508173451 21 245 6.4 9.7 0.00 0.00 0.00 35 1047.3
20260508172946 20 210 6.4 12.9 0.00 0.00 0.00 41 1047.5
20260508172444 20 272 8.0 14.5 0.00 0.00 0.00 36 1047.5
20260508171940 20 222 8.0 14.5 0.00 0.00 0.00 36 1047.9
20260508171437 20 258 8.0 14.5 0.00 0.00 0.00 36 1047.5
20260508170933 20 250 6.4 9.7 0.00 0.00 0.00 38 1047.9
20260508170431 20 221 9.7 14.5 0.00 0.00 0.00 37 1047.9
20260508165927 20 245 6.4 9.7 0.00 0.00 0.00 39 1048.1
20260508165426 20 312 6.4 11.3 0.00 0.00 0.00 35 1048.1
20260508164921 20 256 3.2 14.5 0.00 0.00 0.00 41 1048.2
20260508164418 20 254 9.7 20.9 0.00 0.00 0.00 38 1048.8
20260508163915 19 168 12.9 17.7 0.00 0.00 0.00 39 1048.7
20260508163413 19 197 8.0 12.9 0.00 0.00 0.00 39 1048.8
20260508162908 19 204 6.4 11.3 0.00 0.00 0.00 42 1048.7
20260508162406 19 209 6.4 12.9 0.00 0.00 0.00 40 1048.7
20260508161903 19 235 6.4 12.9 0.00 0.00 0.00 40 1048.9
20260508161400 19 260 14.5 14.5 0.00 0.00 0.00 38 1049.1
20260508160857 18 227 9.7 20.9 0.00 0.00 0.00 41 1049.0
20260508160356 18 255 6.4 11.3 0.00 0.00 0.00 41 1048.9
20260508155852 18 205 9.7 12.9 0.00 0.00 0.00 40 1048.9
20260508155349 18 223 6.4 6.4 0.00 0.00 0.00 46 1049.1
20260508154846 18 234 11.3 16.1 0.00 0.00 0.00 41 1049.4
20260508154344 18 276 4.8 11.3 0.00 0.00 0.00 39 1049.1
20260508153840 18 249 4.8 9.7 0.00 0.00 0.00 41 1049.4
20260508153337 18 304 9.7 12.9 0.00 0.00 0.00 43 1049.4
20260508152833 18 276 6.4 11.3 0.00 0.00 0.00 45 1049.5
20260508152330 18 230 6.4 9.7 0.00 0.00 0.00 44 1049.6
20260508151826 18 268 9.7 16.1 0.00 0.00 0.00 42 1049.7
20260508151323 18 225 3.2 14.5 0.00 0.00 0.00 41 1049.6
20260508150819 17 226 4.8 11.3 0.00 0.00 0.00 40 1049.7
20260508150316 17 263 9.7 12.9 0.00 0.00 0.00 42 1049.8
20260508145812 17 273 4.8 4.8 0.00 0.00 0.00 44 1050.0
20260508145309 17 250 3.2 6.4 0.00 0.00 0.00 41 1049.8
20260508144806 17 248 9.7 11.3 0.00 0.00 0.00 43 1049.5
20260508144304 17 272 3.2 9.7 0.00 0.00 0.00 43 1049.7
20260508143801 17 254 4.8 11.3 0.00 0.00 0.00 44 1049.5
20260508143258 17 249 4.8 11.3 0.00 0.00 0.00 47 1049.8
20260508142754 16 233 6.4 11.3 0.00 0.00 0.00 45 1049.6
20260508142251 16 248 6.4 12.9 0.00 0.00 0.00 46 1049.8
20260508141748 16 232 6.4 6.4 0.00 0.00 0.00 45 1049.4
20260508141245 16 204 4.8 9.7 0.00 0.00 0.00 47 1049.8
20260508140742 16 250 6.4 9.7 0.00 0.00 0.00 49 1049.7
20260508140239 15 256 6.4 4.8 0.00 0.00 0.00 52 1049.6
20260508135735 15 220 4.8 6.4 0.00 0.00 0.00 52 1049.7
20260508135231 15 264 4.8 9.7 0.00 0.00 0.00 55 1049.7
20260508134727 14 274 1.6 4.8 0.00 0.00 0.00 55 1049.5
20260508134225 14 250 4.8 6.4 0.00 0.00 0.00 55 1049.8
20260508133721 13 254 3.2 4.8 0.00 0.00 0.00 57 1049.9
20260508133219 13 236 3.2 4.8 0.00 0.00 0.00 60 1049.3
20260508132716 12 239 1.6 3.2 0.00 0.00 0.00 64 1049.7
20260508132214 12 227 3.2 3.2 0.00 0.00 0.00 66 1049.8
20260508131709 12 253 3.2 3.2 0.00 0.00 0.00 68 1049.8
20260508131206 11 256 1.6 3.2 0.00 0.00 0.00 71 1050.0
20260508130702 11 264 3.2 3.2 0.00 0.00 0.00 68 1050.1
20260508130159 11 231 3.2 3.2 0.00 0.00 0.00 72 1049.7
20260508125655 10 221 1.6 3.2 0.00 0.00 0.00 71 1049.8
20260508125151 10 221 3.2 4.8 0.00 0.00 0.00 73 1049.9
20260508124650 9 231 3.2 3.2 0.00 0.00 0.00 74 1050.0
20260508124146 8 168 1.6 3.2 0.00 0.00 0.00 76 1049.9
20260508123645 8 194 3.2 3.2 0.00 0.00 0.00 78 1050.0
20260508123142 7 194 1.6 3.2 0.00 0.00 0.00 79 1050.0
20260508122638 7 164 3.2 4.8 0.00 0.00 0.00 79 1049.8
20260508122135 7 175 1.6 3.2 0.00 0.00 0.00 80 1049.9
20260508121633 6 162 1.6 3.2 0.00 0.00 0.00 82 1049.8
20260508121131 6 184 1.6 3.2 0.00 0.00 0.00 83 1049.9
20260508120628 6 168 1.6 4.8 0.00 0.00 0.00 84 1049.6
20260508120127 6 163 4.8 4.8 0.00 0.00 0.00 85 1049.8
20260508115624 5 204 3.2 3.2 0.00 0.00 0.00 85 1049.6
20260508115120 5 174 3.2 4.8 0.00 0.00 0.00 87 1049.4
20260508114618 5 172 4.8 4.8 0.00 0.00 0.00 89 1050.0
20260508114113 5 156 3.2 3.2 0.00 0.00 0.00 90 1049.5
20260508113611 5 152 1.6 3.2 0.00 0.00 0.00 91 1049.5
20260508113109 4 165 1.6 3.2 0.00 0.00 0.00 93 1049.5
20260508112605 3 158 3.2 3.2 0.00 0.00 0.00 95 1049.3
20260508112102 3 156 0.0 0.0 0.00 0.00 0.00 94 1049.1
20260508111559 3 156 0.0 0.0 0.00 0.00 0.00 94 1049.1
20260508111056 3 156 0.0 0.0 0.00 0.00 0.00 94 1049.2
20260508110554 3 156 0.0 0.0 0.00 0.00 0.00 94 1049.2
20260508110049 3 156 0.0 1.6 0.00 0.00 0.00 95 1049.4
20260508105544 3 156 1.6 1.6 0.00 0.00 0.00 95 1049.0
20260508105042 2 156 1.6 1.6 0.00 0.00 0.00 95 1049.1
20260508104540 2 156 0.0 0.0 0.00 0.00 0.00 93 1048.9
20260508104036 2 156 0.0 0.0 0.00 0.00 0.00 93 1049.3
20260508103533 2 156 0.0 0.0 0.00 0.00 0.00 93 1048.9
20260508103031 3 156 0.0 0.0 0.00 0.00 0.00 93 1049.2
20260508102528 2 156 0.0 0.0 0.00 0.00 0.00 93 1049.1
20260508102026 2 156 0.0 0.0 0.00 0.00 0.00 92 1049.2
20260508101523 3 156 0.0 0.0 0.00 0.00 0.00 91 1048.7
20260508101020 3 156 0.0 0.0 0.00 0.00 0.00 90 1049.0
20260508100518 3 156 0.0 0.0 0.00 0.00 0.00 90 1048.7
20260508100015 4 156 1.6 1.6 0.00 0.00 0.00 90 1048.9
20260508095512 3 156 1.6 1.6 0.00 0.00 0.00 91 1048.8
20260508095009 4 156 0.0 0.0 0.00 0.00 0.00 89 1048.8
20260508094506 3 156 1.6 1.6 0.00 0.00 0.00 89 1048.9
20260508094003 4 156 0.0 0.0 0.00 0.00 0.00 89 1049.1
20260508093500 4 156 1.6 1.6 0.00 0.00 0.00 88 1049.1
20260508092957 4 156 1.6 1.6 0.00 0.00 0.00 88 1049.0
20260508092455 4 156 1.6 1.6 0.00 0.00 0.00 87 1048.5
20260508091954 5 156 1.6 1.6 0.00 0.00 0.00 88 1049.0
20260508091450 4 156 1.6 1.6 0.00 0.00 0.00 89 1049.0
20260508090947 4 157 3.2 3.2 0.00 0.00 0.00 89 1048.8
20260508090445 4 147 3.2 4.8 0.00 0.00 0.00 90 1049.1
20260508085941 4 165 3.2 3.2 0.00 0.00 0.00 91 1049.0
20260508085438 4 170 3.2 3.2 0.00 0.00 0.00 91 1048.9
20260508084935 4 174 4.8 6.4 0.00 0.00 0.00 91 1048.7
20260508084431 4 176 4.8 6.4 0.00 0.00 0.00 92 1049.0
20260508083929 4 166 3.2 4.8 0.00 0.00 0.00 91 1048.9
20260508083426 4 158 3.2 4.8 0.00 0.00 0.00 92 1049.2
20260508082926 4 172 3.2 4.8 0.00 0.00 0.00 93 1048.8
20260508082424 4 159 1.6 4.8 0.00 0.00 0.00 94 1048.8
20260508081922 4 172 3.2 3.2 0.00 0.00 0.00 94 1049.0
20260508081418 4 141 3.2 3.2 0.00 0.00 0.00 95 1048.9
20260508080914 4 166 1.6 4.8 0.00 0.00 0.00 96 1048.9
20260508080413 3 168 0.0 1.6 0.00 0.00 0.00 96 1048.9
20260508075909 4 174 0.0 1.6 0.00 0.00 0.00 96 1048.9
20260508075406 3 199 1.6 3.2 0.00 0.00 0.00 96 1049.1
20260508074904 3 202 1.6 1.6 0.00 0.00 0.00 96 1048.5
20260508074401 3 204 1.6 1.6 0.00 0.00 0.00 96 1048.8
20260508073858 3 201 0.0 0.0 0.00 0.00 0.00 96 1049.0
20260508073356 3 202 0.0 0.0 0.00 0.00 0.00 96 1048.5
20260508072852 3 204 1.6 3.2 0.00 0.00 0.00 96 1048.9
20260508072348 3 205 0.0 0.0 0.00 0.00 0.00 95 1049.0
20260508071846 3 205 0.0 0.0 0.00 0.00 0.00 95 1048.9
20260508071344 3 205 0.0 0.0 0.00 0.00 0.00 95 1048.7
20260508070841 3 205 0.0 0.0 0.00 0.00 0.00 95 1049.0
20260508070339 3 204 0.0 1.6 0.00 0.00 0.00 95 1048.8
20260508065837 3 205 0.0 0.0 0.00 0.00 0.00 95 1048.7
20260508065335 3 205 0.0 0.0 0.00 0.00 0.00 95 1049.1
20260508064833 3 205 0.0 0.0 0.00 0.00 0.00 95 1049.0
20260508064330 3 205 0.0 0.0 0.00 0.00 0.00 94 1049.1
20260508063827 3 205 0.0 0.0 0.00 0.00 0.00 94 1049.2
20260508063325 3 205 0.0 0.0 0.00 0.00 0.00 94 1049.1
20260508062822 3 204 0.0 0.0 0.00 0.00 0.00 94 1049.4
20260508062320 4 204 0.0 0.0 0.00 0.00 0.00 94 1049.2
20260508061816 4 204 1.6 1.6 0.00 0.00 0.00 95 1049.2
20260508061314 4 217 1.6 1.6 0.00 0.00 0.00 95 1049.0
20260508060810 3 217 0.0 0.0 0.00 0.00 0.00 94 1049.1
20260508060309 3 217 0.0 0.0 0.00 0.00 0.00 94 1049.2
20260508055808 4 217 0.0 0.0 0.00 0.00 0.00 94 1049.3
20260508055307 4 217 0.0 0.0 0.00 0.00 0.00 94 1049.7
20260508054803 4 217 0.0 0.0 0.00 0.00 0.00 94 1049.3
20260508054300 4 211 1.6 1.6 0.00 0.00 0.00 94 1049.4
20260508053757 4 173 1.6 1.6 0.00 0.00 0.00 94 1049.5
20260508053255 4 172 0.0 0.0 0.00 0.00 0.00 93 1049.5
20260508052752 4 176 1.6 1.6 0.00 0.00 0.00 93 1049.5
20260508052249 4 236 1.6 1.6 0.00 0.00 0.00 93 1049.4
20260508051745 5 232 0.0 1.6 0.00 0.00 0.00 94 1049.6
20260508051240 4 232 0.0 0.0 0.00 0.00 0.00 94 1049.6
20260508050737 5 232 1.6 1.6 0.00 0.00 0.00 94 1049.4
20260508050234 4 232 0.0 0.0 0.00 0.00 0.00 94 1049.4
20260508045729 4 232 0.0 0.0 0.00 0.00 0.00 94 1049.5
20260508045228 4 232 0.0 0.0 0.00 0.00 0.00 93 1049.1
20260508044725 5 232 0.0 0.0 0.00 0.00 0.00 93 1049.4
20260508044222 4 232 0.0 0.0 0.00 0.00 0.00 92 1049.4
20260508043717 5 232 0.0 0.0 0.00 0.00 0.00 92 1049.6
20260508043216 5 232 0.0 0.0 0.00 0.00 0.00 92 1049.3
20260508042712 5 232 0.0 0.0 0.00 0.00 0.00 92 1049.1
20260508042209 5 232 0.0 0.0 0.00 0.00 0.00 93 1049.4
20260508041705 4 232 0.0 0.0 0.00 0.00 0.00 92 1049.5
20260508041203 5 232 0.0 0.0 0.00 0.00 0.00 91 1049.3
20260508040659 5 232 0.0 0.0 0.00 0.00 0.00 91 1049.5
20260508040157 5 232 0.0 0.0 0.00 0.00 0.00 91 1049.2
20260508035654 5 232 0.0 0.0 0.00 0.00 0.00 90 1049.2
20260508035151 5 232 0.0 0.0 0.00 0.00 0.00 89 1049.2
20260508034647 5 232 0.0 0.0 0.00 0.00 0.00 88 1049.6
20260508034144 5 232 0.0 0.0 0.00 0.00 0.00 86 1049.5
20260508033642 5 232 0.0 0.0 0.00 0.00 0.00 85 1049.4
20260508033141 5 232 0.0 0.0 0.00 0.00 0.00 83 1049.5